Total_Precipitation_Accumulation
0.00 0.00 0.00 0.00 0.00 0.00 0.00 0.00 0.00 0.00 0.00 0.00 0.00 0.00 0.01 0.04 0.10 0.22 0.46 0.72 1.00 1.21 1.31 1.43 1.60 1.76 1.84 1.86 1.97 2.06 2.31 2.68 2.86 2.81 2.75 2.66 2.30 1.97 1.60 1.37 1.35 1.46 1.51 1.64
0.00 0.00 0.00 0.00 0.00 0.00 0.00 0.00 0.00 0.00 0.00 0.00 0.00 0.01 0.02 0.07 0.11 0.16 0.33 0.57 0.81 1.22 1.47 1.63 1.79 1.90 1.86 1.97 2.19 2.46 2.74 3.03 2.92 3.02 3.21 3.09 2.81 2.23 1.87 1.67 1.62 1.65 1.66 1.66
0.00 0.00 0.00 0.00 0.00 0.00 0.00 0.00 0.00 0.00 0.00 0.00 0.00 0.01 0.04 0.12 0.22 0.32 0.46 0.55 0.61 0.91 1.21 1.34 1.45 1.58 1.84 2.18 2.53 2.77 2.95 2.99 2.92 3.06 3.17 2.86 2.61 2.16 2.00 1.97 1.85 1.79 1.87 1.86
0.00 0.00 0.00 0.00 0.00 0.00 0.00 0.00 0.00 0.00 0.00 0.00 0.00 0.02 0.04 0.10 0.21 0.38 0.56 0.68 0.88 1.04 1.08 1.18 1.31 1.56 1.93 2.26 2.63 2.95 2.93 2.89 2.84 2.93 2.97 2.79 2.50 2.22 2.11 2.12 1.92 1.75 1.73 1.74
0.02 0.00 0.00 0.00 0.00 0.00 0.00 0.00 0.00 0.00 0.00 0.00 0.01 0.02 0.06 0.09 0.18 0.35 0.52 0.76 1.00 1.04 1.00 1.13 1.28 1.49 1.70 2.01 2.32 2.57 2.75 2.79 2.71 2.66 2.61 2.57 2.38 2.13 2.00 1.92 1.80 1.75 1.78 1.69
0.04 0.03 0.02 0.01 0.01 0.01 0.00 0.00 0.00 0.00 0.01 0.02 0.03 0.04 0.10 0.16 0.26 0.35 0.53 0.73 0.94 1.14 1.18 1.22 1.42 1.56 1.63 1.82 2.08 2.24 2.37 2.41 2.37 2.27 2.22 2.23 2.17 2.12 1.97 1.82 1.82 1.84 1.78 1.64
0.07 0.06 0.06 0.04 0.03 0.02 0.01 0.02 0.05 0.05 0.08 0.10 0.09 0.11 0.24 0.35 0.42 0.45 0.54 0.76 1.03 1.25 1.28 1.36 1.53 1.63 1.68 1.71 1.76 1.81 1.85 1.88 1.82 1.74 1.68 1.71 1.73 1.75 1.69 1.67 1.72 1.76 1.70 1.61
0.13 0.09 0.09 0.10 0.08 0.06 0.05 0.07 0.18 0.15 0.07 0.08 0.12 0.23 0.40 0.45 0.48 0.52 0.57 0.71 0.96 1.10 1.15 1.26 1.34 1.26 1.20 1.23 1.27 1.30 1.30 1.30 1.27 1.29 1.31 1.35 1.45 1.50 1.49 1.59 1.60 1.65 1.63 1.58
0.06 0.06 0.07 0.09 0.11 0.11 0.15 0.19 0.16 0.25 0.19 0.18 0.18 0.31 0.43 0.48 0.63 0.69 0.73 0.79 0.84 0.83 0.81 0.84 0.86 0.89 0.95 0.97 0.97 0.97 1.00 1.01 0.96 0.95 1.04 1.11 1.16 1.24 1.27 1.36 1.39 1.38 1.37 1.31
0.02 0.03 0.04 0.04 0.06 0.09 0.16 0.26 0.35 0.51 0.50 0.40 0.25 0.42 0.67 0.82 0.90 0.87 0.99 1.19 1.02 0.74 0.62 0.59 0.59 0.63 0.67 0.70 0.75 0.79 0.88 0.97 0.95 0.88 0.88 0.89 0.93 0.97 1.07 1.13 1.16 1.19 1.23 1.19
0.02 0.04 0.05 0.06 0.08 0.14 0.24 0.32 0.42 0.53 0.56 0.54 0.47 0.57 0.57 0.87 0.96 0.97 0.99 1.00 0.83 0.54 0.38 0.33 0.34 0.38 0.46 0.59 0.67 0.69 0.80 0.88 0.84 0.74 0.73 0.77 0.79 0.81 0.86 0.92 0.95 1.00 1.05 1.11
0.02 0.03 0.04 0.06 0.09 0.10 0.19 0.32 0.43 0.54 0.54 0.55 0.56 0.66 0.48 0.64 0.70 0.70 0.73 0.57 0.44 0.31 0.23 0.21 0.21 0.25 0.33 0.42 0.47 0.55 0.64 0.74 0.76 0.72 0.72 0.75 0.78 0.77 0.76 0.77 0.77 0.79 0.83 0.85
0.01 0.02 0.03 0.08 0.16 0.15 0.16 0.19 0.26 0.36 0.44 0.46 0.57 0.72 0.49 0.46 0.52 0.50 0.43 0.36 0.27 0.22 0.17 0.16 0.17 0.21 0.24 0.29 0.36 0.43 0.48 0.56 0.64 0.66 0.71 0.76 0.75 0.72 0.74 0.77 0.77 0.75 0.74 0.74
0.00 0.00 0.02 0.07 0.10 0.10 0.14 0.19 0.24 0.30 0.40 0.38 0.40 0.56 0.54 0.46 0.41 0.37 0.30 0.24 0.21 0.17 0.16 0.14 0.15 0.16 0.16 0.19 0.26 0.31 0.34 0.41 0.49 0.57 0.71 0.83 0.88 0.87 0.87 0.81 0.81 0.79 0.75 0.75
0.01 0.01 0.02 0.02 0.03 0.06 0.10 0.15 0.19 0.26 0.29 0.36 0.33 0.41 0.46 0.39 0.33 0.27 0.23 0.21 0.22 0.20 0.15 0.12 0.11 0.10 0.11 0.14 0.17 0.25 0.32 0.36 0.43 0.57 0.78 0.88 0.86 0.80 0.78 0.75 0.81 0.78 0.70 0.69
0.01 0.01 0.03 0.06 0.08 0.12 0.18 0.21 0.19 0.17 0.16 0.17 0.23 0.33 0.29 0.27 0.26 0.26 0.24 0.21 0.19 0.16 0.13 0.11 0.10 0.09 0.08 0.08 0.09 0.16 0.26 0.33 0.42 0.53 0.64 0.67 0.71 0.73 0.68 0.63 0.60 0.61 0.62 0.61
0.01 0.02 0.03 0.06 0.13 0.18 0.27 0.24 0.26 0.27 0.21 0.22 0.34 0.36 0.26 0.23 0.19 0.16 0.14 0.13 0.13 0.11 0.09 0.08 0.08 0.07 0.07 0.06 0.09 0.15 0.21 0.27 0.37 0.45 0.49 0.56 0.67 0.69 0.61 0.52 0.54 0.59 0.58 0.56
0.01 0.01 0.03 0.06 0.17 0.32 0.26 0.07 0.07 0.11 0.14 0.15 0.20 0.20 0.17 0.15 0.11 0.09 0.07 0.07 0.07 0.06 0.06 0.05 0.05 0.05 0.05 0.06 0.10 0.14 0.20 0.26 0.36 0.46 0.52 0.57 0.68 0.68 0.62 0.58 0.56 0.55 0.54 0.54
0.01 0.01 0.02 0.06 0.12 0.21 0.13 0.05 0.04 0.07 0.09 0.04 0.07 0.08 0.08 0.06 0.07 0.10 0.06 0.03 0.03 0.03 0.04 0.04 0.03 0.05 0.08 0.09 0.11 0.16 0.24 0.28 0.36 0.47 0.57 0.67 0.74 0.72 0.67 0.63 0.58 0.55 0.54 0.50
0.00 0.00 0.01 0.03 0.10 0.16 0.09 0.04 0.05 0.08 0.21 0.11 0.08 0.07 0.06 0.06 0.13 0.16 0.05 0.01 0.01 0.03 0.07 0.08 0.06 0.10 0.15 0.15 0.16 0.23 0.29 0.37 0.48 0.57 0.64 0.70 0.73 0.75 0.72 0.68 0.64 0.59 0.58 0.52
0.00 0.00 0.01 0.03 0.08 0.09 0.03 0.04 0.06 0.16 0.25 0.06 0.02 0.02 0.02 0.06 0.11 0.08 0.02 0.01 0.01 0.03 0.08 0.12 0.16 0.23 0.23 0.21 0.25 0.33 0.38 0.45 0.52 0.60 0.67 0.74 0.80 0.76 0.73 0.73 0.74 0.70 0.66 0.65
0.01 0.01 0.01 0.03 0.10 0.12 0.02 0.02 0.04 0.06 0.03 0.02 0.02 0.02 0.02 0.02 0.02 0.03 0.02 0.02 0.02 0.04 0.07 0.15 0.25 0.30 0.28 0.30 0.43 0.50 0.52 0.51 0.54 0.64 0.71 0.81 0.87 0.73 0.68 0.79 0.80 0.78 0.78 0.77
0.00 0.01 0.01 0.03 0.05 0.02 0.01 0.01 0.02 0.02 0.02 0.02 0.02 0.01 0.02 0.02 0.02 0.03 0.02 0.03 0.07 0.09 0.11 0.14 0.22 0.28 0.30 0.39 0.56 0.72 0.72 0.64 0.65 0.72 0.80 0.83 0.85 0.88 0.90 0.86 0.85 0.85 0.82 0.83
0.00 0.01 0.01 0.03 0.02 0.01 0.01 0.01 0.01 0.01 0.01 0.01 0.01 0.01 0.01 0.02 0.02 0.02 0.02 0.03 0.07 0.10 0.11 0.13 0.19 0.28 0.37 0.46 0.61 0.75 0.77 0.76 0.78 0.82 0.86 0.89 0.92 0.93 0.96 1.00 0.97 0.93 0.88 0.89
0.00 0.00 0.02 0.05 0.03 0.02 0.01 0.01 0.01 0.00 0.01 0.01 0.01 0.01 0.01 0.02 0.03 0.03 0.04 0.04 0.06 0.08 0.10 0.13 0.22 0.33 0.40 0.47 0.58 0.66 0.70 0.81 0.90 0.91 0.94 0.96 0.98 1.00 1.02 1.02 0.99 0.94 0.92 0.84
0.01 0.01 0.03 0.04 0.03 0.03 0.03 0.01 0.00 0.00 0.01 0.01 0.01 0.01 0.02 0.02 0.03 0.04 0.05 0.05 0.07 0.09 0.11 0.16 0.23 0.31 0.37 0.44 0.54 0.62 0.73 0.87 1.00 1.02 0.95 0.94 0.92 0.95 0.98 0.97 0.84 0.68 0.64 0.59